Regional Weather Roundup
Issued by NWS Cleveland, OH

Home | Current Version | Previous Version | Graphics & Text | Print | Product List | Glossary On
Versions: 1 2 3 4 5 6 7 8 9 10 11 12 13 14 15 16 17 18 19 20 21 22 23 24 25 26 27 28 29 30 31 32 33 34 35 36 37 38 39 40 41 42 43 44 45 46 47 48 49 50
000
ASUS41 KCLE 241810
RWRCLE
OHIO REGIONAL WEATHER ROUNDUP
NATIONAL WEATHER SERVICE WILMINGTON, OH
200 PM EDT THU JUL 24 2014

NOTE: "FAIR" INDICATES FEW OR NO CLOUDS BELOW 12,000 FEET WITH NO
SIGNIFICANT WEATHER AND/OR OBSTRUCTIONS TO VISIBILITY.

OHZ001>008-015>018-024>027-034-035-043-044-241900-
   NORTHWEST OHIO

CITY           SKY/WX    TMP DP  RH WIND       PRES   REMARKS
DEFIANCE       PTSUNNY   74  50  42 N10       30.11F
FINDLAY        PTSUNNY   72  51  47 NE14      30.09S
TOLEDO EXPRESS PTSUNNY   74  48  39 N10       30.10F
TOLEDO METCALF MOSUNNY   73  48  41 NE12G18   30.11F
LIMA           PTSUNNY   71  54  54 N9        30.09F
$$

OHZ009>014-019>023-028>033-038-089-241900-
   NORTHEAST OHIO

CITY           SKY/WX    TMP DP  RH WIND       PRES   REMARKS
CLE-HOPKINS    MOSUNNY   70  52  52 N21       30.10S
CLE-LAKEFRONT  MOSUNNY   70  53  54 NE16      30.07S
CUY CO. ARPT   MOSUNNY   72  52  49 N14       30.08S
LORAIN-ELYRIA  PTSUNNY   73  52  47 NE12G21   30.09F
ASHTABULA      MOSUNNY   68  50  52 NE8       30.09S
AKRON-CANTON   PTSUNNY   72  54  53 N13       30.05F
WOOSTER        PTSUNNY   73  56  54 N12       30.06F
MANSFIELD      PTSUNNY   70  55  59 N14       30.07F
YOUNGSTOWN     PTSUNNY   72  52  49 N12       30.06R
$$

OHZ042-051>053-060>062-070>072-077>081-241900-
  SOUTHWEST OHIO

CITY           SKY/WX    TMP DP  RH WIND       PRES   REMARKS
CINC-COVINGTON MOSUNNY   72  53  51 N12       30.06F
CINC-LUNKEN    PTSUNNY   74  57  55 NE9G21    30.05F
HAMILTON       PTSUNNY   73  56  54 N10       30.07F
DAYTON         PTSUNNY   72  54  53 N13       30.09S
WRIGHT-PAT AFB PTSUNNY   72  54  53 N10       30.07F
DAYTON GENERAL MOSUNNY   73  56  54 NE13      30.06F
WILMINGTON     MOSUNNY   74  55  51 NE17G24   30.06S
$$

OHZ036-037-039>041-045>050-054>059-063>069-073>076-082>088-241900-
  CENTRAL AND SOUTHEAST OHIO

CITY           SKY/WX    TMP DP  RH WIND       PRES   REMARKS
COLUMBUS       MOSUNNY   75  53  46 N10G21    30.03F
OSU AIRPORT    PTSUNNY   73  55  53 NE8G17    30.04F
BOLTON FIELD   PTSUNNY   72  54  53 N13       30.05F
RICKENBACK AFB MOSUNNY   76  48  37 N12       30.03F
NEWARK         MOSUNNY   74  52  46 NE7       30.04F
MARION         MOSUNNY   72  54  53 N16       30.07F
LANCASTER      MOSUNNY   75  57  53 NE12      30.04F
ZANESVILLE     MOSUNNY   74  53  48 N8        30.03F
NEW PHILLY     MOSUNNY   74  58  57 NE6       30.04F
$$


USA.gov is the U.S. government's official web portal to all federal, state and local government web resources and services.